Search flights

Ft Lauderdale-Hollywood Intl Airport, Ft Lauderdale (KFLL)

Airport Weather & NOTAM's

METAR for:KFLL (Ft Lauderdale-Hollywood Intl, FL, US)
Text:KFLL 182053Z 10012KT 10SM FEW031 BKN250 29/18 A3004 RMK AO2 SLP171 T02890183 56016
Conditions at:2053 UTC 18 Apr 2024
Temperature: 28.9°C ( 84°F)
Dewpoint: 18.3°C ( 65°F) [RH = 53%]
Pressure (altimeter):30.04 inches Hg (1017.4 mb) [Sea level pressure: 1017.1 mb]
Winds:from the E (100 degrees) at 14 MPH (12 knots; 6.2 m/s)
Visibility:10 or more sm (16+ km)
Ceiling:25000 feet AGL
Clouds:few clouds at 3100 feet AGL, broken clouds at 25000 feet AGL
TAF for:KFLL (Ft Lauderdale-Hollywood Intl, FL, US) issued at 2058 UTC 18 Apr 2024
Text:KFLL 182058Z 1821/1924 11008KT P6SM FEW030 SCT250
Forecast period:2100 UTC 18 April 2024 to 0500 UTC 19 April 2024
Forecast type:FROM: standard forecast or significant change
Winds:from the ESE (110 degrees) at 9 MPH (8 knots; 4.1 m/s)
Visibility:6 or more sm (10+ km)
Ceiling:at least 12,000 feet AGL
Clouds:few clouds at 3000 feet AGL, scattered clouds at 25000 feet AGL
Text:FM190500 VRB04KT P6SM SCT030 BKN250
Forecast period:0500 to 1400 UTC 19 April 2024
Forecast type:FROM: standard forecast or significant change
Winds:variable direction winds at 5 MPH (4 knots; 2.1 m/s)
Visibility:6 or more sm (10+ km)
Ceiling:25000 feet AGL
Clouds:scattered clouds at 3000 feet AGL, broken clouds at 25000 feet AGL
Text:FM191400 13008KT P6SM FEW030 SCT250
Forecast period:1400 UTC 19 April 2024 to 0000 UTC 20 April 2024
Forecast type:FROM: standard forecast or significant change
Winds:from the SE (130 degrees) at 9 MPH (8 knots; 4.1 m/s)
Visibility:6 or more sm (10+ km)
Ceiling:at least 12,000 feet AGL
Clouds:few clouds at 3000 feet AGL, scattered clouds at 25000 feet AGL

Live Departures & Arrivals

Pilot Flight Number Departure Arrival Aircraft Stage DTG ETA
Ricardo (ID: NKS251) NKS740 KFLL KATL Airbus A320Neo Spiri... Taxiing 670.4nm 00:00

Departures History (last 12 months)

Flight No. Dest. Aircraft Date
NKS243 MGGT Airbus A32... 2024-04-18 08:45:18
NKS1895 KBWI Airbus A32... 2024-04-17 01:11:04
NKS446 KPIT Airbus A32... 2024-04-16 14:59:01
NKS1011 KPHL ToLissA320... 2024-04-16 19:10:27
NKS1895 KBWI Airbus A32... 2024-04-15 23:24:53
NKS1726 KMCI Airbus A31... 2024-04-15 09:34:09
NKS1608 KCLE ToLissA321... 2024-04-15 01:51:22
NKS1449 KDTW Airbus A32... 2024-04-14 23:34:00
NKS1610 MMUN Airbus A32... 2024-04-13 06:52:37
NKS1555 KTPA Airbus A32... 2024-04-13 22:17:43
NKS1007 KPHX Fenix A320... 2024-04-13 10:43:31
NKS1449 KDTW Airbus A32... 2024-04-12 22:49:16
NKS1115 KTPA ToLissA320... 2024-04-12 18:48:44
NKS1810 KPHL Fenix A320... 2024-04-10 23:53:12
NKS676 KMCO Airbus A32... 2024-04-09 02:40:04
NKS3052 KDFW Airbus A32... 2024-04-07 10:14:22
NKS297 KBNA ToLissA321... 2024-04-07 18:00:44
NKS1610 MMUN Airbus A32... 2024-04-07 01:46:05
NKS1366 KRDU Airbus A31... 2024-04-07 04:13:44
NKS335 MROC Airbus A32... 2024-04-06 16:39:00
NKS1526 KMSY Airbus A32... 2024-04-06 05:43:30
NKS1328 MHPR ToLissA321... 2024-04-06 21:17:32
NKS100 TNCM ToLissA321... 2024-04-04 03:24:51
NKS616 KBOS ToLissA320... 2024-04-03 02:23:37
NKS1115 KTPA Fenix A320... 2024-04-03 22:45:01
NKS100 TNCM ToLissA321... 2024-04-02 16:27:16
NKS8809 KMCO Airbus A32... 2024-03-31 01:48:20
NKS1366 KRDU Fenix A320... 2024-03-31 18:22:22
NKS785 KACY Fenix A320... 2024-03-30 23:50:44
NKS723 MKJP Fenix A320... 2024-03-30 00:36:24
NKS1526 KMSY Fenix A320... 2024-03-26 20:22:07
NKS807 SKBO ToLissA321... 2024-03-24 16:09:56
NKS435 MNMG ToLissA321... 2024-03-24 03:02:08
NKS1448 KCHS ToLissA321... 2024-03-24 00:30:52
NKS8809 KMCO ToLissA321... 2024-03-23 14:44:55
NKS243 MGGT ToLissA320... 2024-03-23 13:15:25
NKS153 MSLP Airbus A31... 2024-03-21 00:02:34
NKS1240 MTCH Airbus A31... 2024-03-21 15:44:25
NKS1007 KPHX Fenix A320... 2024-03-21 06:32:02
NKS951 MTPP Toliss Air... 2024-03-18 18:50:28
NKS438 TISX Toliss Air... 2024-03-16 18:06:36
NKS1448 KCHS Fenix A320... 2024-03-13 21:32:04
NKS230 KATL Fenix A320... 2024-03-12 21:39:00
NKS783 MDPC Fenix A320... 2024-03-08 19:32:43
NKS1555 KTPA Fenix A320... 2024-03-07 23:35:16
NKS1050 KPNS Airbus A32... 2024-03-07 16:03:23
NKS238 SKBQ Fenix A320... 2024-03-05 14:32:10
NKS651 SKAR Airbus A32... 2024-03-04 14:17:08
NKS230 KATL Fenix A320... 2024-02-29 17:40:18
NKS243 MGGT Airbus A31... 2024-02-26 01:46:48
NKS1366 KRDU FWB Spirit... 2024-02-18 13:48:22
NKS1738 KSAT Toliss Air... 2024-02-16 01:39:36
NKS2002 KMYR FenixA320_... 2024-02-14 19:31:21
NKS122 KORD Airbus A32... 2024-02-12 22:16:50
NKS1011 KPHL ToLissA320... 2024-02-10 19:37:49
NKS723 MKJP FenixA320_... 2024-02-07 02:21:52
NKS723 MKJP Toliss Air... 2024-02-07 01:12:02
NKS392 KSDF Airbus A31... 2024-02-07 21:32:34
NKS8802 KMCO Airbus A32... 2024-02-05 00:41:03
NKS833 MKJS Airbus A32... 2024-02-04 15:46:16
NKS1050 KPNS Airbus A32... 2024-02-04 13:56:10
NKS958 KBDL Airbus A32... 2024-02-03 11:31:03
NKS723 MKJP Airbus A32... 2024-02-03 19:37:39
NKS1366 KRDU FenixA320_... 2024-02-03 02:00:59
NKS1115 KTPA Airbus A32... 2024-02-02 19:55:10
NKS1895 KBWI Airbus A32... 2024-01-29 22:58:52
NKS100 TNCM ToLissA321... 2024-01-27 17:34:05
NKS8801 KTPA ToLissA319... 2024-01-26 19:20:28
NKS1736 KRIC FenixA320_... 2024-01-26 18:34:50
NKS1366 KRDU FenixA320_... 2024-01-26 11:12:03
NKS740 KATL Airbus A32... 2024-01-22 20:40:31
NKS1215 KEWR FSLabs A32... 2024-01-22 02:32:08
NKS1810 KPHL FenixA320_... 2024-01-19 20:14:15
NKS1810 KPHL FenixA320_... 2024-01-16 14:34:41
NKS833 MKJS Toliss Air... 2024-01-15 02:15:56
NKS885 TNCA Airbus A32... 2024-01-14 14:11:35
NKS576 KCMH Airbus A32... 2024-01-13 13:04:56
NKS145 MDSD Airbus A32... 2024-01-11 13:08:59
NKS951 MTPP Project Ai... 2024-01-10 18:22:58
NKS100 TNCM Airbus A32... 2024-01-10 11:06:15
NKS1910 KDFW A20N 2024-01-02 15:15:00
NKS335 MROC Airbus A32... 2023-12-31 16:43:02
NKS1314 KDEN FenixA320_... 2023-12-31 17:17:22
NKS723 MKJP A320 2023-12-30 15:34:00
NKS1366 KRDU FenixA320_... 2023-12-29 19:45:50
NKS1328 MHPR A320 2023-12-29 16:31:00
NKS1011 KPHL Airbus A32... 2023-12-29 19:31:44
NKS1608 KCLE Airbus A32... 2023-12-28 12:58:25
NKS1555 KTPA Airbus A32... 2023-12-25 23:40:34
NKS1050 KPNS Airbus A32... 2023-12-21 05:20:52
NKS1888 KORF Airbus A32... 2023-12-20 20:52:26
NKS1115 KTPA FenixA320_... 2023-12-18 16:05:16
NKS397 KACY ToLissA320... 2023-12-17 19:52:44
NKS1078 KATL Airbus A32... 2023-12-14 03:47:40
NKS616 KBOS Airbus A32... 2023-12-04 22:02:01
NKS237 SKRG FenixA320_... 2023-12-03 18:25:10
NKS335 MROC Airbus A32... 2023-11-30 15:42:44
NKS1555 KTPA FenixA320_... 2023-11-29 14:08:57
NKS8862 MDPC Airbus A32... 2023-11-28 11:50:36
NKS1949 KDTW ToLissA321... 2023-11-28 00:19:33
NKS8044 KMCO Airbus A32... 2023-11-24 03:52:54
NKS1505 KPIT Airbus A32... 2023-11-21 23:06:17
NKS209 KMYR Airbus A32... 2023-11-19 00:18:59
NKS723 MKJP Airbus A32... 2023-11-18 19:34:11
NKS1 KORD Airbus A32... 2023-11-12 12:08:24
NKS1247 KRDU FenixA320_... 2023-11-11 14:57:30
NKS1011 KPHL ToLissA320... 2023-11-11 20:13:45
NKS1448 KCHS Airbus A32... 2023-11-07 13:59:57
NKS8022 KMCO Project Ai... 2023-11-02 19:36:05
NKS449 TISX Airbus A32... 2023-10-28 15:57:45
NKS1115 KTPA ToLissA320... 2023-10-25 21:49:16
NKS833 MKJS Airbus A32... 2023-10-23 17:52:08
NKS5 KORD ToLissA321... 2023-10-22 18:01:33
NKS198 KMCO FenixA320_... 2023-10-22 19:55:33
NKS100 TNCM Airbus A32... 2023-10-19 17:43:37
NKS1810 KPHL FenixA320_... 2023-10-18 11:36:56
NKS1050 KPNS Airbus A32... 2023-10-16 11:08:24
NKS209 KMYR FenixA320_... 2023-10-15 18:00:52
NKS198 KMCO Airbus A32... 2023-10-12 12:13:51
NKS1888 KORF FenixA320_... 2023-10-10 10:34:55
NKS1524 TJSJ Toliss Air... 2023-10-09 00:12:51
NKS1448 KCHS FenixA320_... 2023-10-08 12:57:29
NKS492 KCMH Airbus A32... 2023-10-05 22:31:39
NKS1078 KATL FenixA320_... 2023-10-05 20:35:50
NKS1555 KTPA FenixA320... 2023-10-04 15:18:47
NKS230 KATL ToLissA319... 2023-09-26 23:02:52
NKS8062 KMCO ToLissA321... 2023-09-24 23:08:20
NKS397 KACY ToLissA320... 2023-09-17 20:04:08
NKS397 KACY 320_JARDes... 2023-09-16 18:03:38
NKS371 TJBQ Airbus A32... 2023-09-10 05:40:18
NKS1524 TJSJ [IAES] Spi... 2023-09-07 21:12:02
NKS201 TIST Airbus A32... 2023-08-27 00:46:06
NKS1555 KTPA Airbus A32... 2023-08-27 13:24:26
NKS8845 KMCO Airbus A32... 2023-08-26 18:09:52
NKS1888 KORF FenixA320_... 2023-08-21 19:55:06
NKS122 TJSJ ToLissA320... 2023-08-19 18:49:31
NKS1115 KTPA FenixA320_... 2023-08-19 15:19:51
NKS844 MDSD Airbus A32... 2023-08-15 20:51:31
NKS833 MKJS FenixA320_... 2023-08-13 14:20:23
NKS230 KATL FenixA320_... 2023-08-13 20:17:56
NKS8845 KMCO Airbus A32... 2023-08-12 14:30:11
NKS1115 KTPA FenixA320_... 2023-08-10 13:55:10
NKS1115 KTPA ToLissA320... 2023-08-09 22:17:14
NKS100 TNCM FenixA320_... 2023-08-08 18:53:31
NKS833 MKJS Airbus A32... 2023-08-06 04:14:30
NKS1366 KRDU FenixA320_... 2023-08-06 13:43:37
NKS723 MKJP Airbus A32... 2023-08-02 03:02:34
NKS1115 KTPA FenixA320_... 2023-08-02 22:18:38
NKS885 TNCA FenixA320_... 2023-08-01 19:53:47
NKS1004 KPHL ToLissA320... 2023-07-30 19:52:54
NKS1115 KTPA FenixA320_... 2023-07-29 14:53:38
NKS844 MDSD FenixA320_... 2023-07-27 00:02:07
NKS657 KMSY ToLissA320... 2023-07-27 07:27:24
NKS1115 KTPA FenixA320_... 2023-07-26 14:30:18
NKS1115 KTPA FenixA320_... 2023-07-22 14:37:57
NKS1610 MMUN FenixA320_... 2023-07-20 00:25:07
NKS1522 MMUN ToLissA321... 2023-07-19 23:05:06
NKS8805 KMCO Airbus A32... 2023-07-18 23:34:51
NKS6153 MSLP FenixA320_... 2023-07-18 16:46:50
NKS1052 KATL Airbus A32... 2023-07-15 02:50:24
NKS230 KATL FenixA320_... 2023-07-13 11:07:28
NKS676 KMCO Airbus A32... 2023-07-12 19:17:22
NKS230 KATL FenixA320_... 2023-07-12 23:40:03
NKS1050 KPNS ToLissA320... 2023-07-12 15:41:56
NKS8845 KMCO Airbus A32... 2023-07-11 11:35:09
NKS1738 KSAT FSLabs A32... 2023-07-09 12:22:20
NKS1115 KTPA Airbus A32... 2023-07-07 19:42:55
NKS9130 TJBQ FenixA320_... 2023-07-06 22:43:43
NKS1505 KPIT ToLissA320... 2023-07-06 00:45:57
NKS1052 KATL Airbus A32... 2023-07-06 23:14:31
NKS1115 KTPA FenixA320_... 2023-07-01 13:15:16
NKS226 KATL Airbus A32... 2023-06-29 00:38:54
NKS1115 KTPA Airbus A32... 2023-06-27 00:31:31
NKS723 MKJP Airbus A32... 2023-06-25 17:35:52
NKS2181 KPHL ToLissA319... 2023-06-25 18:46:52
NKS1232 KATL FenixA320_... 2023-06-25 23:28:03
NKS1099 KCLE FenixA320_... 2023-06-25 15:06:45
NKS1894 KATL Airbus A32... 2023-06-24 22:40:37
NKS1115 KTPA FenixA320_... 2023-06-23 14:23:55
NKS1115 KTPA FenixA320_... 2023-06-22 23:42:48
NKS9124 KMCO Airbus A31... 2023-06-21 00:11:00
NKS8801 KRSW Airbus A32... 2023-06-20 23:32:19
NKS367 KLGA Airbus A32... 2023-06-20 00:20:06
NKS1115 KTPA Airbus A32... 2023-06-18 11:19:11
NKS723 MKJP Airbus A32... 2023-06-15 23:58:17
NKS1050 KPNS ToLissA320... 2023-06-14 14:27:43
NKS777 KLAS ToLissA320... 2023-06-13 02:35:51
NKS1555 KTPA ToLissA319... 2023-06-13 09:21:45
NKS8845 KMCO Airbus A32... 2023-06-12 12:14:50
NKS833 MKJS Airbus A32... 2023-06-11 13:59:24
NKS213 KLAS A320 NEO P... 2023-06-11 11:09:50
NKS1115 KTPA Airbus A32... 2023-06-10 01:38:52
NKS230 KATL FenixA320_... 2023-06-09 22:21:24
NKS6755 MROC Toliss+FF-... 2023-06-06 23:06:06
NKS1894 KATL Airbus A32... 2023-06-05 21:35:13
NKS1888 KORF FenixA320_... 2023-06-02 11:25:05
NKS1115 KTPA FWB SPIRIT... 2023-06-01 12:59:54
NKS367 KLGA Airbus A32... 2023-05-31 20:01:25
NKS209 KMYR Airbus A32... 2023-05-31 14:19:44
NKS1448 KCHS FenixA320_... 2023-05-31 11:34:17
NKS1888 KORF FSLabs A32... 2023-05-30 01:11:01
NKS1555 KTPA Airbus A32... 2023-05-24 01:34:53
NKS367 KLGA FWB Spirit... 2023-05-21 15:09:52
NKS1366 KRDU FenixA320_... 2023-05-21 21:11:17
NKS1366 KRDU Airbus A32... 2023-05-21 06:56:38
NKS122 TJSJ Airbus A32... 2023-05-21 18:22:41
NKS2181 KPHL ToLissA319... 2023-05-20 01:07:32
NKS122 TJSJ Airbus A32... 2023-05-19 03:06:00
NKS844 MDSD Airbus A32... 2023-05-17 20:49:36
NKS201 TIST ToLissA320... 2023-05-17 00:10:44
NKS2153 MGGT ToLissA320... 2023-05-16 22:59:57
NKS633 MDST Airbus A32... 2023-05-15 01:39:21
NKS1232 KATL Toliss+FF-... 2023-05-15 01:25:51
NKS1665 KLGA Airbus A32... 2023-05-13 23:55:34
NKS1050 KPNS Airbus A32... 2023-05-13 19:33:56
NKS397 KACY ToLissA321... 2023-05-12 22:40:25
NKS1004 KPHL ToLissA320... 2023-05-08 15:17:23
NKS1522 MMUN ToLissA321... 2023-05-07 21:29:16
NKS1448 KCHS Airbus A32... 2023-05-02 15:43:41
NKS226 KATL Airbus A32... 2023-04-25 21:53:09
NKS833 MKJS A320NEO SP... 2023-04-19 20:19:40

Arrivals History (last 12 months)

Flight No. Origin Aircraft Date
NKS244 MGGT Airbus A32... 2024-04-18 14:07:48
NKS528 MMUN FenixA320_... 2024-04-17 22:52:49
NKS301 KBNA Airbus A32... 2024-04-17 20:53:31
NKS1877 KATL Fenix A320... 2024-04-17 17:16:29
NKS3125 KDFW Airbus A32... 2024-04-16 03:46:48
NKS280 KDFW ToLissA321... 2024-04-16 03:46:49
NKS1727 KMCI Fenix A320... 2024-04-16 11:02:24
NKS1246 TJSJ Airbus A32... 2024-04-14 11:25:27
NKS1006 KPHX Fenix A320... 2024-04-14 12:52:10
NKS1611 MMUN Airbus A32... 2024-04-13 10:20:13
NKS8823 KMCO Airbus A32... 2024-04-11 06:29:34
NKS310 KLAX ToLissA320... 2024-04-11 04:13:50
NKS393 KSDF Airbus A32... 2024-04-10 05:11:23
NKS338 MROC Airbus A32... 2024-04-09 02:46:27
NKS301 KBNA Airbus A32... 2024-04-09 00:50:38
NKS403 KATL Fenix A320... 2024-04-08 02:45:57
NKS797 KIAH Airbus A32... 2024-04-07 01:31:35
NKS214 KLAS Airbus A32... 2024-04-07 04:09:38
NKS1611 MMUN Airbus A32... 2024-04-06 05:22:39
NKS101 TNCM ToLissA321... 2024-04-05 19:02:05
NKS393 KSDF FlightFact... 2024-04-04 23:57:13
NKS296 KBOS ToLissA320... 2024-04-03 18:13:21
NKS1667 KLGA Airbus A32... 2024-04-03 18:51:43
NKS1367 KRDU Fenix A320... 2024-04-01 23:48:38
NKS702 MKJP Fenix A320... 2024-03-31 17:36:16
NKS2689 KORF ToLissA321... 2024-03-28 19:42:29
NKS244 MGGT ToLissA320... 2024-03-27 00:11:30
NKS1896 KBWI ToLissA321... 2024-03-24 13:26:32
NKS3930 KLGA Airbus A32... 2024-03-19 12:16:14
NKS2001 KMYR Fenix A320... 2024-03-18 17:29:46
NKS8829 MMUN Fenix A320... 2024-03-11 01:25:54
NKS784 MDPC Fenix A320... 2024-03-09 01:42:40
NKS239 SKBQ Fenix A320... 2024-03-07 00:12:50
NKS652 SKAR A320neo Xb... 2024-03-06 01:24:42
NKS338 MROC Airbus A32... 2024-03-03 04:31:40
NKS301 KBNA ToLissA321... 2024-02-25 21:52:14
NKS2001 KMYR FenixA320_... 2024-02-25 17:37:04
NKS1756 MROC Toliss Air... 2024-02-22 05:45:11
NKS101 TNCM ToLissA321... 2024-02-15 23:10:15
NKS270 MKJS Airbus A32... 2024-02-13 01:53:53
NKS826 MHLM Toliss Air... 2024-02-11 17:56:18
NKS784 MDPC Airbus A32... 2024-02-11 21:41:24
NKS702 MKJP FenixA320_... 2024-02-08 20:59:36
NKS702 MKJP Airbus A31... 2024-02-07 05:36:24
NKS2 KORD Toliss Air... 2024-02-06 22:14:11
NKS1999 KMCO Airbus A32... 2024-02-05 09:12:49
NKS1367 KRDU FenixA320_... 2024-02-05 02:19:54
NKS959 KBDL Airbus A32... 2024-02-04 03:51:28
NKS702 MKJP Airbus A32... 2024-02-04 06:01:21
NKS987 KEWR Airbus A32... 2024-02-03 05:44:00
NKS575 KTPA Airbus A32... 2024-02-03 06:45:47
NKS1053 KATL FWB Spirit... 2024-01-29 23:14:07
NKS886 TNCA Airbus A32... 2024-01-28 13:38:47
NKS680 KMSY Airbus A32... 2024-01-28 22:51:22
NKS299 KBOS ToLissA321... 2024-01-28 22:06:09
NKS1367 KRDU FenixA320_... 2024-01-28 23:59:34
NKS1556 KTPA ToLissA321... 2024-01-27 17:25:00
NKS797 KIAH Airbus A32... 2024-01-26 01:28:33
NKS952 MTPP A321-231 S... 2024-01-24 20:52:15
NKS877 KPHL Airbus A32... 2024-01-22 01:28:12
NKS1005 KPHL FenixA320_... 2024-01-22 04:07:48
NKS1999 KMCO Airbus A32... 2024-01-21 22:21:13
NKS784 MDPC FenixA320_... 2024-01-18 20:40:20
NKS7 KORD ToLissA321... 2024-01-17 02:25:53
NKS8801 KACY FSLabs A32... 2024-01-14 04:39:41
NKS1051 KPNS Airbus A31... 2024-01-14 20:26:10
NKS101 TNCM Airbus A32... 2024-01-10 17:53:00
NKS1005 KPHL Airbus A32... 2024-01-09 15:56:57
NKS2 KORD Airbus A32... 2024-01-07 17:48:38
NKS1320 KDEN FenixA320_... 2024-01-07 07:58:29
NKS1246 TJSJ Airbus A32... 2024-01-06 21:44:09
NKS702 MKJP A20N 2023-12-30 20:12:00
NKS2689 KCLT Airbus A32... 2023-12-30 19:25:18
NKS1367 KRDU FenixA320_... 2023-12-30 05:00:53
NKS3060 KDFW A320 2023-12-29 23:49:00
NKS1329 MHPR A320 2023-12-29 23:01:00
NKS1005 KPHL Airbus A32... 2023-12-29 18:41:00
NKS1447 KCHS Airbus A32... 2023-12-28 03:00:56
NKS223 KIND FenixA320_... 2023-12-26 23:36:14
NKS195 KMCO Project Ai... 2023-12-26 21:06:16
NKS338 MROC Airbus A32... 2023-12-21 00:44:34
NKS2001 KMYR Airbus A32... 2023-12-14 03:00:01
NKS2337 KEWR FenixA320_... 2023-12-13 01:40:19
NKS214 KLAS ToLissA320... 2023-12-10 22:15:31
NKS784 MDPC Airbus A32... 2023-12-07 04:27:28
NKS702 MKJP Airbus A32... 2023-12-06 19:55:35
NKS310 KLAX Airbus A32... 2023-12-02 01:17:54
NKS1993 KLAS Airbus A32... 2023-11-28 00:20:39
NKS338 MROC Airbus A32... 2023-11-23 22:30:07
NKS3351 KCLE Airbus A32... 2023-11-20 22:39:21
NKS702 MKJP Airbus A32... 2023-11-18 23:24:29
NKS1051 KPNS Airbus A32... 2023-11-18 15:47:18
NKS449 TISX Airbus A32... 2023-11-12 12:09:55
NKS445 KCMH Airbus A32... 2023-11-12 05:26:54
NKS1447 KCHS Airbus A32... 2023-11-07 04:09:05
NKS8840 KMCO FenixA320_... 2023-11-02 00:42:53
NKS403 KATL Project Ai... 2023-11-01 17:19:48
NKS1005 KPHL ToLissA321... 2023-10-29 21:49:02
NKS270 MKJS Airbus A32... 2023-10-27 00:11:12
NKS1667 KLGA FlightFact... 2023-10-25 01:11:10
NKS101 TNCM Airbus A32... 2023-10-23 15:52:20
NKS1928 KBWI A320 0.4v... 2023-10-21 20:17:50
NKS445 KCMH Airbus A32... 2023-10-19 17:01:07
NKS1556 KTPA Airbus A32... 2023-10-18 19:44:53
NKS1051 KPNS Airbus A32... 2023-10-17 13:02:56
NKS946 SKCG ToLissA320... 2023-10-16 01:33:31
NKS512 KAUS Airbus A32... 2023-10-15 13:47:56
NKS1320 KDEN FenixA320_... 2023-10-15 05:40:28
NKS1889 KORF FenixA320... 2023-10-11 13:40:48
NKS1447 KCHS FWB Spirit... 2023-10-09 13:21:04
NKS786 KACY FenixA320_... 2023-10-08 12:26:05
NKS195 KMCO Toliss Air... 2023-10-07 17:38:58
NKS797 KIAH FenixA320_... 2023-10-05 16:58:06
NKS675 KMCO ToLissA321... 2023-09-25 22:31:38
NKS374 TJBQ Airbus A31... 2023-09-24 18:35:15
NKS1079 KATL ToLissA321... 2023-09-09 22:54:28
NKS1556 KTPA ToLissA319... 2023-09-07 20:02:25
NKS212 TIST Airbus A32... 2023-09-05 09:39:23
NKS420 KBWI A20N 2023-09-04 17:57:00
NKS1401 KEWR ToLissA321... 2023-09-03 21:49:44
NKS575 KTPA FenixA320_... 2023-08-22 00:15:31
NKS1401 KEWR 320_JARDes... 2023-08-22 02:34:19
NKS845 MDSD Airbus A32... 2023-08-21 23:09:11
NKS1556 KTPA FenixA320_... 2023-08-16 22:19:11
NKS1053 KATL Airbus A32... 2023-08-14 01:11:47
NKS1367 KRDU FenixA320_... 2023-08-13 01:51:41
NKS101 TNCM FenixA320_... 2023-08-12 02:12:04
NKS615 KBOS Airbus A32... 2023-08-08 18:59:35
NKS1959 KMCO ToLissA319... 2023-08-08 00:13:48
NKS1737 KSAT FenixA320_... 2023-08-08 01:46:30
NKS147 KEWR ToLissA320... 2023-08-08 03:27:10
NKS212 TIST Airbus A32... 2023-08-07 16:07:34
NKS1556 KTPA FenixA320_... 2023-08-07 18:47:26
NKS8829 KMCO Airbus A32... 2023-08-05 15:31:27
NKS702 MKJP Airbus A32... 2023-08-05 00:18:18
NKS1079 KATL Spirit A32... 2023-08-05 23:15:21
NKS886 TNCA FenixA320_... 2023-08-04 17:24:46
NKS980 KCLT Airbus A32... 2023-08-03 10:00:35
NKS1556 KTPA FenixA320_... 2023-08-02 18:25:59
NKS1556 KTPA FenixA320_... 2023-07-26 23:43:03
NKS609 KBNA FenixA320_... 2023-07-25 23:31:50
NKS1556 KTPA FenixA320_... 2023-07-23 15:20:38
NKS1611 MMUN FenixA320_... 2023-07-21 16:08:44
NKS154 MSLP FenixA320_... 2023-07-19 04:52:31
NKS8822 KMCO Airbus A32... 2023-07-18 02:19:00
NKS8202 KDTW ToLissA321... 2023-07-16 21:58:26
NKS1053 KATL Airbus A32... 2023-07-16 12:25:05
NKS1053 KATL Airbus A32... 2023-07-15 00:36:06
NKS1877 KATL FenixA320_... 2023-07-13 05:40:25
NKS1556 KTPA FenixA320_... 2023-07-13 01:26:54
NKS1051 KPNS ToLissA320... 2023-07-13 16:46:10
NKS403 KATL FenixA320_... 2023-07-11 23:11:16
NKS270 MKJS Airbus A32... 2023-07-11 04:38:40
NKS1678 KEWR Airbus A32... 2023-07-10 05:21:29
NKS1877 KATL FSLabs A32... 2023-07-09 02:25:34
NKS575 KTPA Airbus A32... 2023-07-08 15:34:17
NKS8000 KMCO FenixA320_... 2023-07-05 21:19:51
NKS8875 KMCO Airbus A32... 2023-07-04 12:38:27
NKS8829 KMCO ToLissA320... 2023-07-03 08:31:16
NKS1556 KTPA FenixA320_... 2023-06-30 02:21:37
NKS845 MDSD Airbus A32... 2023-06-29 18:01:44
NKS1367 KRDU ToLissA320... 2023-06-28 15:22:18
NKS228 KATL Airbus A32... 2023-06-27 23:37:36
NKS702 MKJP Airbus A32... 2023-06-26 22:44:07
NKS1556 KTPA Airbus A32... 2023-06-24 15:05:04
NKS1053 KATL Airbus A32... 2023-06-24 16:10:05
NKS228 KATL Airbus A32... 2023-06-23 19:13:04
NKS1556 KTPA FenixA320_... 2023-06-22 15:11:01
NKS1556 KTPA FenixA320_... 2023-06-21 20:25:33
NKS8859 KMIA Airbus A32... 2023-06-18 20:32:31
NKS270 MKJS FenixA320_... 2023-06-18 19:17:49
NKS980 KCLT ToLissA320... 2023-06-13 19:23:46
NKS1367 KRDU ToLissA319... 2023-06-13 08:01:37
NKS270 MKJS Airbus A32... 2023-06-12 02:30:50
NKS1312 KATL A20N 2023-06-11 09:18:00
NKS1009 KIND FenixA320_... 2023-06-11 19:39:02
NKS1556 KTPA Airbus A32... 2023-06-10 23:56:12
NKS8929 KMCO Airbus A32... 2023-06-09 00:07:26
NKS210 KMYR Airbus A32... 2023-06-09 03:12:35
NKS403 KATL FenixA320_... 2023-06-08 09:38:42
NKS954 KLAS A320 NEO P... 2023-06-07 18:11:36
NKS1053 KATL Airbus A32... 2023-06-05 02:14:07
NKS8822 KMCO Airbus A32... 2023-06-03 16:34:47
NKS1556 KTPA Airbus A32... 2023-06-01 02:41:29
NKS1447 KCHS FenixA320_... 2023-06-01 13:21:44
NKS417 KDTW ToLissA319... 2023-05-30 00:08:23
NKS1737 KSAT Airbus A32... 2023-05-30 14:18:05
NKS1737 KSAT FSLabs A32... 2023-05-29 15:21:44
NKS8828 KMCO ToLissA319... 2023-05-20 00:18:40
NKS845 MDSD Airbus A32... 2023-05-20 03:42:54
NKS210 KMYR FenixA320_... 2023-05-19 00:53:04
NKS1315 KATL FWB Spirit... 2023-05-19 16:23:37
NKS270 MKJS FenixA320_... 2023-05-18 21:23:05
NKS632 MDST Airbus A32... 2023-05-17 00:04:34
NKS2154 MGGT ToLissA320... 2023-05-16 17:21:25
NKS1556 KTPA Airbus A32... 2023-05-16 19:42:03
NKS1737 KSAT Airbus A32... 2023-05-13 05:02:42
NKS1729 KACY Airbus A32... 2023-05-13 15:52:55
NKS680 KMSY FWB Spirit... 2023-05-10 22:02:27
NKS1893 KATL ToLissA320... 2023-05-10 00:03:23
NKS403 KATL Airbus A32... 2023-05-09 04:39:41
NKS2689 KCLT ToLissA320... 2023-05-09 04:00:39
NKS1010 TJSJ Airbus A32... 2023-05-09 02:06:11
NKS1611 MMUN A321 2023-05-08 09:05:00
NKS1447 KCHS Airbus A32... 2023-05-07 23:57:33
NKS270 MKJS Airbus A32... 2023-05-01 23:25:31
NKS1896 KBWI Airbus A32... 2023-04-26 05:02:57

Runway Information (Airport elevation: 22ft)

Runway 10L Length 9,008ft Width 143ft Elevation 22ft Surface Asphalt Heading 90
Runway 10R Length 7,997ft Width 147ft Elevation 22ft Surface Asphalt Heading 90
Runway 28L Length 7,997ft Width 147ft Elevation 22ft Surface Asphalt Heading 270
Runway 28R Length 9,008ft Width 143ft Elevation 22ft Surface Asphalt Heading 270

Airport Frequencies

Type APP/DEP Frequency 118.100 Mhz
Type APP/DEP Frequency 119.450 Mhz
Type APP/DEP Frequency 119.700 Mhz
Type APP/DEP Frequency 128.600 Mhz
Type APP/DEP Frequency 133.775 Mhz
Type ASOS Frequency 135.000 Mhz
Type ATIS Frequency 135.000 Mhz
Type CPT Frequency 128.400 Mhz
Type D Frequency 119.450 Mhz
Type D Frequency 119.700 Mhz
Type D Frequency 126.050 Mhz
Type D Frequency 128.600 Mhz
Type FSS Frequency 122.200 Mhz
Type Ground Frequency 121.400 Mhz
Type Ground Frequency 121.700 Mhz
Type Ground Frequency 118.175 Mhz
Type Ground Frequency 129.875 Mhz
Type Tower Frequency 119.300 Mhz
Type Tower Frequency 120.200 Mhz
Type UC Frequency 122.950 Mhz
Type APP/DEP Frequency 120.500 Mhz
Type APP/DEP Frequency 124.600 Mhz
Type APP/DEP Frequency 126.050 Mhz
Type Clearance Frequency 128.400 Mhz
Type Ground Frequency 118.175 Mhz
Type Ground Frequency 121.400 Mhz
Type Ground Frequency 129.875 Mhz
Type Tower Frequency 119.300 Mhz
Type UC Frequency 122.950 Mhz

Airport Navaids

Type VOR-DME Ident FLL Frequency 114400 Khz
Type NDB Ident PJN Frequency 242 Khz